Eau Claire, WI

9:10 PM CST on January 18, 2017 (GMT -0600)
Chippewa Valley Regional

Weather History for KEAU - September, 2012

Change the Weather History Date:

Sunday, September 16, 2012

  Actual Average Record
Temperature  
Mean Temperature 68 °F 60 °F  
Max Temperature 82 °F 71 °F 95 °F (1948)
Min Temperature 54 °F 49 °F 34 °F (1916)
Degree Days  
Heating Degree Days 0 6  
Month to date heating degree days 33 65  
Since 1 July heating degree days 58 104  
Cooling Degree Days 3 1  
Month to date cooling degree days 57 37  
Year to date cooling degree days 830 564  
Growing Degree Days 18 (Base 50)    
Moisture  
Dew Point 50 °F    
Average Humidity 52    
Maximum Humidity 67    
Minimum Humidity 36    
Precipitation  
Precipitation 0.00 in 0.12 in 2.57 in (1942)
Month to date precipitation 0.78 2.01  
Year to date precipitation 19.94 24.13  
Snow  
Snow 0.00 in 0.00 in 0.00 in ()
Month to date snowfall 0.0 0.0  
Since 1 July snowfall 0.0 0.0  
Since 1 September snowfall 0.0 0.0  
Snow Depth 0.00 in    
Sea Level Pressure  
Sea Level Pressure 29.91 in    
Wind  
Wind Speed 9 mph (SW)    
Max Wind Speed 21 mph    
Max Gust Speed 26 mph    
Visibility 10 miles    
Events      
T = Trace of Precipitation, MM = Missing Value Source: NWS Daily Summary

Daily Weather History Graph

Daily Weather History Graph

Search for Another Location

Airport or City:

Trip Planner

Search our weather history database for the weather conditions in past years. The results will help you decide how hot, cold, wet, or windy it might be!

Date:

Astronomy

Sep. 16, 2012 Rise Set
Actual Time 6:46 AM CDT 7:13 PM CDT
Civil Twilight 6:17 AM CDT 7:43 PM CDT
Nautical Twilight 5:42 AM CDT 8:17 PM CDT
Astronomical Twilight 5:06 AM CDT 8:53 PM CDT
Moon 7:30 AM CDT (9/16) 7:13 PM CDT (9/16)
Length of Visible Light 13h 26m
Length of Day
12h 27m
New Moon, 0% of the Moon is Illuminated
Sep 16
New Moon
Sep 22
First Quarter
Sep 29
Full
Oct 8
Last Quarter
Oct 15
New

Hourly Weather History & Observations

Time (CDT) Temp. Heat Index Dew Point Humidity Pressure Visibility Wind Dir Wind Speed Gust Speed Precip Events Conditions
12:56 AM 64.0 °F - 43.0 °F 46% 29.99 in 10.0 mi SSW 8.1 mph - N/A   Clear
1:56 AM 63.0 °F - 43.0 °F 48% 29.98 in 10.0 mi SSW 6.9 mph - N/A   Clear
2:56 AM 60.1 °F - 44.1 °F 55% 29.97 in 10.0 mi SSW 6.9 mph - N/A   Clear
3:56 AM 60.1 °F - 44.1 °F 55% 29.96 in 10.0 mi SW 5.8 mph - N/A   Clear
4:56 AM 57.0 °F - 44.1 °F 62% 29.96 in 10.0 mi SSW 6.9 mph - N/A   Clear
5:56 AM 55.9 °F - 44.1 °F 64% 29.96 in 10.0 mi South 4.6 mph - N/A   Clear
6:56 AM 55.4 °F - 44.6 °F 67% 29.96 in 10.0 mi South 5.8 mph - N/A   Clear
7:56 AM 59.0 °F - 46.0 °F 62% 29.96 in 10.0 mi SSW 6.9 mph - N/A   Clear
8:56 AM 64.0 °F - 48.0 °F 56% 29.95 in 10.0 mi SSW 10.4 mph - N/A   Clear
9:56 AM 69.1 °F - 52.0 °F 54% 29.94 in 10.0 mi SSW 12.7 mph 19.6 mph N/A   Clear
10:56 AM 73.0 °F - 55.0 °F 53% 29.92 in 10.0 mi South 15.0 mph - N/A   Clear
11:56 AM 75.9 °F - 55.9 °F 50% 29.90 in 10.0 mi SSW 18.4 mph 21.9 mph N/A   Clear
12:56 PM 78.1 °F - 55.0 °F 45% 29.88 in 10.0 mi WSW 15.0 mph 23.0 mph N/A   Clear
1:56 PM 80.1 °F 80.1 °F 55.0 °F 42% 29.87 in 10.0 mi WSW 19.6 mph 26.5 mph N/A   Scattered Clouds
2:56 PM 81.0 °F - 51.1 °F 35% 29.85 in 10.0 mi SW 16.1 mph 25.3 mph N/A   Clear
3:56 PM 80.1 °F - 52.0 °F 38% 29.84 in 10.0 mi WSW 13.8 mph 23.0 mph N/A   Clear
4:56 PM 79.0 °F - 52.0 °F 39% 29.84 in 10.0 mi WSW 13.8 mph - N/A   Clear
5:56 PM 78.8 °F - 51.8 °F 39% 29.85 in 10.0 mi West 8.1 mph - N/A   Clear
6:56 PM 73.0 °F - 51.1 °F 46% 29.86 in 10.0 mi WNW 5.8 mph - N/A   Clear
7:56 PM 70.0 °F - 53.1 °F 55% 29.87 in 10.0 mi Calm Calm - N/A   Clear
8:56 PM 66.2 °F - 51.8 °F 60% 29.87 in 10.0 mi Calm Calm - N/A   Clear
9:56 PM 63.0 °F - 52.0 °F 67% 29.87 in 10.0 mi Calm Calm - N/A   Clear
10:56 PM 64.9 °F - 53.1 °F 65% 29.88 in 10.0 mi NNW 4.6 mph - N/A   Clear
11:56 PM 64.9 °F - 48.9 °F 56% 29.88 in 10.0 mi NNW 8.1 mph - N/A   Clear